Hourly Data Report for October 26, 2013

All times are specified in Local Standard Time (LST). Add 1 hour to adjust for Daylight Saving Time where and when it is observed.

HALL BEACH A
NUNAVUT

68°46'33.000" N
81°14'33.000" W
9.10 m
2402354
71293
YUX

Download Data

Hourly Data (October 2013)
Hourly Data Report for October 26, 2013
Temp Definition
°C
Dew Point Temp Definition
°C
Rel Hum Definition
%
Wind Dir Definition
10's deg

Wind Spd Definition
km/h
Visibility Definition
km
Stn Press Definition
kPa
Hmdx Definition


Wind Chill Definition


Weather Definition


TIME
00:00 Legend Double Dagger -7.8 -8.2 97 8 15 4.8 100.10   -14 LegendNANA
01:00 Legend Double Dagger -6.2 -7.4 91 8 21 4.0 100.12   -13 LegendNANA
02:00 Legend Double Dagger -6.6 -8.2 88 8 24 16.1 100.13   -14 LegendNANA
03:00 Legend Double Dagger -6.8 -8.9 85 8 21 16.1 100.12   -14 LegendNANA
04:00 Legend Double Dagger -6.7 -8.8 85 9 21 16.1 100.12   -14 LegendNANA
05:00 Legend Double Dagger -7.0 -8.8 87 8 26 16.1 100.15   -15 LegendNANA
06:00 Legend Double Dagger -7.4 -9.2 87 9 18 16.1 100.15   -14 LegendNANA
07:00 Legend Double Dagger -7.6 -9.6 86 8 17 16.1 100.16   -14 LegendNANA
08:00 Legend Double Dagger -7.8 -9.9 85 9 15 16.1 100.16   -14 LegendNANA
09:00 Legend Double Dagger -7.7 -9.5 87 10 9 16.1 100.18   -12 LegendNANA
10:00 Legend Double Dagger -7.9 -9.3 90 33 5 2.0 100.19   -11 LegendNANA
11:00 Legend Double Dagger -9.2 -10.3 92 30 5 9.7 100.19   -12 LegendNANA
12:00 Legend Double Dagger -7.5 -8.6 92 34 17 2.4 100.22   -14 LegendNANA
13:00 Legend Double Dagger -12.0 -13.2 91 34 17 16.1 100.21   -20 LegendNANA
14:00 Legend Double Dagger -12.0 -13.2 91 33 18 14.5 100.24   -20 LegendNANA
15:00 Legend Double Dagger -13.0 -14.3 90 34 18 16.1 100.26   -21 LegendNANA
16:00 Legend Double Dagger -13.4 -14.8 89 32 21 12.9 100.29   -22 LegendNANA
17:00 Legend Double Dagger -15.8 -17.2 89 32 22 16.1 100.30   -26 LegendNANA
18:00 Legend Double Dagger -17.8 -19.4 87 31 21 16.1 100.29   -28 LegendNANA
19:00 Legend Double Dagger -17.0 -18.7 87 31 22 16.1 100.27   -27 LegendNANA
20:00 Legend Double Dagger -15.8 -17.4 88 30 21 16.1 100.24   -25 LegendNANA
21:00 Legend Double Dagger -15.3 -16.8 89 29 22 12.9 100.23   -25 LegendNANA
22:00 Legend Double Dagger -18.3 -20.2 85 29 17 16.1 100.21   -28 LegendNANA
23:00 Legend Double Dagger -16.6 -18.3 87 30 18 14.5 100.17   -26 LegendNANA

Notes on Data Quality.

Legend

  • E = Estimated
  • M = Missing
  • NA = Not Available
  • ‡ = Partner data that is not subject to review by the National Climate Archives
Date modified: